User: anonymous   Login
Location: Sherrills_Ford_Terrell
(35.6000°N, 80.9830°W)
Time: 05:07:17
(UTC-04:00)
Language:

CZ-4B R/B - Orbit

View from above orbital plane
View from above orbital plane
View from above satellite
View from above satellite

Ground track
Ground track

The orbit data is extracted from the following two-line orbital elements,

1 29093U 06015B   16145.32805182  .00003255  00000-0  86937-4 0  9993
2 29093  97.4835 242.2549 0067993 272.9397  86.4067 15.36557445557757
Epoch (UTC): 24 May 2016 07:52:23
Eccentricity: 0.0067993
inclination: 97.4835°
perigee height: 410 km
apogee height: 503 km
right ascension of ascending node: 242.2549°
argument of perigee: 272.9397°
revolutions per day: 15.36557445
mean anomaly at epoch: 86.4067°
orbit number at epoch: 55775

The dashed part of the orbit path shows where the satellite is in the earth's shadow,  

DLR